This demonstration page uses our WeatherBlox Daily Observations layout. Learn more.

Left ArrowRight Arrow

Hourly Observations for September 5, 2017

Temp ( °F °C ) Dew Point ( °F °C ) Humidity (%) Winds ( mph kmh ) Pressure ( in mb ) Visibility ( mi km ) Precip ( " mm )
12:09 am 00:09 Cloudy 72 22 66 19 83 83 NW 10 17 29.77 1008 10 16.0934 N/A
12:30 am 00:30 Cloudy 70 21 66 19 88 88 NNW 8 13 29.77 1008 7 11.26538 N/A
12:50 am 00:50 Cloudy 68 20 66 19 94 94 WNW 5 7 29.8 1009 10 16.0934 N/A
1:09 am 01:09 Cloudy 68 20 66 19 94 94 N 5 7 29.77 1008 10 16.0934 N/A
1:30 am 01:30 Cloudy 68 20 64 18 88 88 NNW 6 9 29.8 1009 10 16.0934 N/A
1:50 am 01:50 Cloudy 68 20 64 18 88 88 NNW 6 9 29.77 1008 10 16.0934 N/A
2:09 am 02:09 Cloudy 66 19 63 17 88 88 NNW 6 9 29.77 1008 10 16.0934 N/A
2:30 am 02:30 Partly Cloudy 66 19 63 17 88 88 NNW 8 13 29.77 1008 10 16.0934 N/A
2:50 am 02:50 Partly Cloudy 64 18 63 17 94 94 NNW 5 7 29.83 1010 10 16.0934 N/A
3:09 am 03:09 Partly Cloudy 64 18 63 17 94 94 NW 5 7 29.83 1010 10 16.0934 N/A
3:30 am 03:30 Partly Cloudy 64 18 63 17 94 94 NW 5 7 29.83 1010 10 16.0934 N/A
3:50 am 03:50 Cloudy 66 19 63 17 88 88 NW 5 7 29.8 1009 10 16.0934 N/A
4:09 am 04:09 Cloudy 66 19 63 17 88 88 NW 3 6 29.8 1009 10 16.0934 N/A
4:30 am 04:30 Cloudy 64 18 63 17 94 94 NW 3 6 29.83 1010 10 16.0934 N/A
4:49 am 04:49 Mostly Cloudy 64 18 63 17 94 94 WNW 3 6 29.83 1010 10 16.0934 N/A
5:09 am 05:09 Clear 63 17 61 16 94 94 NW 5 7 29.83 1010 10 16.0934 N/A
5:30 am 05:30 Partly Cloudy 63 17 63 17 100 100 NW 3 6 29.83 1010 7 11.26538 N/A
5:49 am 05:49 Clear 63 17 61 16 94 94 WNW 3 6 29.83 1010 7 11.26538 N/A
6:09 am 06:09 Clear 61 16 61 16 100 100 WNW 3 6 29.83 1010 5 8.0467 N/A
6:30 am 06:30 Clear 61 16 61 16 100 100 WSW 5 7 29.83 1010 2.5 4.02335 N/A
6:49 am 06:49 Clear 61 16 61 16 100 100 W 6 9 29.83 1010 3 4.82802 N/A
7:09 am 07:09 Clear 63 17 61 16 94 94 W 7 11 29.85 1011 4 6.43736 N/A
7:30 am 07:30 Partly Cloudy 63 17 63 17 100 100 WNW 10 17 29.85 1011 7 11.26538 N/A
7:49 am 07:49 Partly Cloudy 63 17 61 16 94 94 WNW 7 11 29.85 1011 7 11.26538 N/A
8:09 am 08:09 Sunny 61 16 57 14 88 88 WNW 8 13 29.88 1012 10 16.0934 N/A
8:30 am 08:30 Sunny 61 16 57 14 88 88 WNW 9 15 29.88 1012 10 16.0934 N/A
8:49 am 08:49 Sunny 61 16 55 13 83 83 WNW 9 15 29.88 1012 10 16.0934 N/A
9:09 am 09:09 Sunny 61 16 55 13 83 83 WNW 8 13 29.88 1012 10 16.0934 N/A
9:30 am 09:30 Sunny 61 16 55 13 83 83 NW 12 19 29.88 1012 10 16.0934 N/A
9:49 am 09:49 Sunny 61 16 55 13 83 83 NW 14 22 29.88 1012 10 16.0934 N/A
10:10 am 10:10 Sunny 63 17 55 13 77 77 NW 15 24 29.88 1012 10 16.0934 N/A
10:29 am 10:29 Sunny 63 17 55 13 77 77 NW 13 20 29.88 1012 10 16.0934 N/A
10:49 am 10:49 Partly Cloudy 64 18 55 13 73 73 NNW 13 20 29.91 1013 10 16.0934 N/A
11:10 am 11:10 Partly Cloudy 64 18 54 12 68 68 NNW 9 15 29.91 1013 10 16.0934 N/A
11:29 am 11:29 Sunny 64 18 55 13 73 73 WNW 9 15 29.91 1013 10 16.0934 N/A
11:49 am 11:49 Sunny 66 19 54 12 64 64 WNW 13 20 29.91 1013 10 16.0934 N/A
12:10 pm 12:10 Sunny 68 20 52 11 56 56 NW 13 20 29.88 1012 10 16.0934 N/A
12:29 pm 12:29 Partly Cloudy 68 20 50 10 53 53 WNW 15 24 29.88 1012 10 16.0934 N/A
12:50 pm 12:50 Sunny 70 21 48 9 46 46 NW 14 22 29.88 1012 10 16.0934 N/A
1:10 pm 13:10 Sunny 70 21 48 9 46 46 WNW 16 26 29.88 1012 10 16.0934 N/A
1:29 pm 13:29 Sunny 70 21 46 8 43 43 NW 10 17 29.88 1012 10 16.0934 N/A
1:50 pm 13:50 Sunny 70 21 46 8 43 43 W 20 31 29.88 1012 10 16.0934 N/A
2:09 pm 14:09 Sunny 72 22 45 7 38 38 WNW 16 26 29.88 1012 10 16.0934 N/A
2:30 pm 14:30 Partly Cloudy 70 21 46 8 43 43 W 16 26 29.88 1012 10 16.0934 N/A
2:49 pm 14:49 Partly Cloudy 70 21 45 7 40 40 NW 14 22 29.88 1012 10 16.0934 N/A
3:09 pm 15:09 Partly Cloudy 68 20 46 8 46 46 WNW 13 20 29.88 1012 10 16.0934 N/A
3:30 pm 15:30 Partly Cloudy 70 21 46 8 43 43 WNW 16 26 29.88 1012 10 16.0934 N/A
3:49 pm 15:49 Partly Cloudy 70 21 46 8 43 43 WNW 17 28 29.88 1012 10 16.0934 N/A
4:10 pm 16:10 Partly Cloudy 72 22 46 8 41 41 W 17 28 29.85 1011 10 16.0934 N/A
4:30 pm 16:30 Partly Cloudy 70 21 46 8 43 43 WNW 14 22 29.85 1011 10 16.0934 N/A
4:49 pm 16:49 Mostly Cloudy 70 21 48 9 46 46 NNW 16 26 29.85 1011 10 16.0934 N/A
5:10 pm 17:10 Mostly Cloudy 68 20 48 9 49 49 NW 14 22 29.88 1012 10 16.0934 N/A
5:30 pm 17:30 Mostly Cloudy 66 19 46 8 49 49 NW 15 24 29.91 1013 10 16.0934 N/A
5:49 pm 17:49 Partly Cloudy 66 19 45 7 46 46 WNW 14 22 29.91 1013 10 16.0934 N/A
6:10 pm 18:10 Partly Cloudy 68 20 45 7 43 43 WNW 14 22 29.88 1012 10 16.0934 N/A
6:30 pm 18:30 Partly Cloudy 64 18 45 7 49 49 NW 10 17 29.91 1013 10 16.0934 N/A
6:49 pm 18:49 Sunny 66 19 46 8 49 49 WNW 13 20 29.91 1013 10 16.0934 N/A
7:10 pm 19:10 Partly Cloudy 66 19 46 8 49 49 NW 10 17 29.91 1013 10 16.0934 N/A
7:30 pm 19:30 Partly Cloudy 64 18 48 9 56 56 NW 12 19 29.91 1013 10 16.0934 N/A
7:49 pm 19:49 Sunny 64 18 48 9 56 56 WNW 9 15 29.91 1013 10 16.0934 N/A
8:10 pm 20:10 Clear 63 17 46 8 56 56 WNW 7 11 29.91 1013 10 16.0934 N/A
8:29 pm 20:29 Clear 61 16 46 8 59 59 WNW 7 11 29.91 1013 10 16.0934 N/A
8:50 pm 20:50 Partly Cloudy 61 16 46 8 59 59 WNW 7 11 29.94 1014 10 16.0934 N/A
9:10 pm 21:10 Clear 57 14 48 9 72 72 WNW 6 9 29.94 1014 10 16.0934 N/A
9:29 pm 21:29 Clear 55 13 50 10 82 82 W 5 7 29.94 1014 10 16.0934 N/A
9:50 pm 21:50 Clear 55 13 48 9 77 77 W 5 7 29.94 1014 10 16.0934 N/A
10:09 pm 22:09 Clear 55 13 48 9 77 77 W 7 11 29.94 1014 10 16.0934 N/A
10:30 pm 22:30 Clear 55 13 48 9 77 77 W 7 11 29.94 1014 10 16.0934 N/A
10:50 pm 22:50 Clear 55 13 48 9 77 77 W 6 9 29.94 1014 10 16.0934 N/A
11:09 pm 23:09 Clear 54 12 48 9 82 82 W 6 9 29.94 1014 10 16.0934 N/A
11:30 pm 23:30 Clear 54 12 48 9 82 82 WNW 6 9 29.94 1014 10 16.0934 N/A
11:49 pm 23:49 Clear 54 12 46 8 77 77 WNW 8 13 29.94 1014 10 16.0934 N/A

Powered by AerisWeather